Flag for U.S.A. Weather past 2 weeks in Victoria, Texas, U.S.A.

Now
88 °F

Broken clouds.


Feels Like: 97 °F
Forecast: 76 / 89 °F
Wind: 16 mph from South

Location: Victoria Regional Airport

Current Time: Jul 4, 2015 at 3:50:50 PM

Latest Report: Jul 4, 2015 at 2:51 PM


Visibility: 10 mi

Pressure: 29.99 "Hg

Humidity: 63%

Dew point: 74 °F

Location of VictoriaLocation

Historic Weather in Victoria — Graph

°F

Victoria temperature yesterday

Maximum temperature yesterday: 91 °F (at 12:51 PM)
Minimum temperature yesterday: 75 °F (at 6:51 AM)
Average temperature yesterday: 83 °F

Past Weeks' High & Low Weather Summary

 TemperatureHumidityPressure
High92 °F (Jun 26, 3:51 PM)100% (Jun 19, 11:51 PM)30.15 "Hg (Jun 19, 11:51 PM)
Low71 °F (Jul 2, 5:51 AM)52% (Jun 30, 11:51 AM)29.93 "Hg (Jul 3, 6:51 PM)
Average82 °F85%30.03 "Hg
* Reported Jun 19 2:51 PM — Jul 4 2:51 PM, Victoria, Weather by CustomWeather, © 2015

Note: Actual official high and low records may vary slightly from our data, if they occured in-between our weather recording intervals... More about our weather records

Advertising

Victoria weather history for previous 24 hours

 ConditionsComfort  
Time TempWeatherWind HumidityBarometerVisibility
2:51 PM
Sat, Jul 4
88 °FBroken clouds.16 mph63%29.99 "Hg10 mi
1:51 PM91 °FBroken clouds.20 mph60%29.99 "Hg10 mi
12:51 PM91 °FScattered clouds.21 mph60%30.00 "Hg10 mi
11:51 AM90 °FScattered clouds.18 mph61%30.00 "Hg10 mi
10:51 AM88 °FPassing clouds.10 mph70%30.00 "Hg10 mi
10:04 AM87 °FThundershowers. Partly sunny.9 mph72%30.02 "Hg10 mi
9:51 AM86 °FScattered clouds.12 mph75%30.01 "Hg10 mi
8:51 AM82 °FSunny.7 mph91%30.00 "Hg10 mi
7:51 AM78 °FPassing clouds.3 mph100%29.99 "Hg7 mi
5:51 AM76 °FFog.No wind100%29.98 "Hg5 mi
4:51 AM77 °FPassing clouds.No wind96%29.97 "Hg9 mi
3:51 AM77 °FClear.No wind100%29.96 "Hg8 mi
2:51 AM77 °FClear.5 mph100%29.97 "Hg10 mi
1:51 AM78 °FPassing clouds.6 mph96%29.98 "Hg9 mi
12:51 AM78 °FClear.No wind96%29.98 "Hg7 mi
11:51 PM
Fri, Jul 3
78 °FPassing clouds.6 mph96%29.98 "Hg8 mi
10:51 PM79 °FClear.6 mph94%29.97 "Hg10 mi
9:51 PM79 °FClear.8 mph94%29.95 "Hg10 mi
8:51 PM81 °FSunny.6 mph85%29.94 "Hg10 mi
7:51 PM84 °FSunny.14 mph74%29.94 "Hg10 mi
6:51 PM88 °FPassing clouds.17 mph63%29.93 "Hg10 mi
5:51 PM87 °FPassing clouds.17 mph65%29.94 "Hg10 mi
4:51 PM91 °FSunny.18 mph54%29.94 "Hg10 mi
3:51 PM90 °FPassing clouds.17 mph56%29.96 "Hg10 mi
Weather by CustomWeather, © 2015

See weather overviewHow to use our weather pages